SL-12 R/B(2), 32278

Orbit data source: Space-Track

SL-12 R/B(2), 32278 is space debris in MEO originally from a launch on Fri, 26 Oct 2007 UTC launched from the Tyuratam Missile And Space Complex (TTMTR). Debris objects in space refer to the collection of defunct objects orbiting the Earth. Examples of debris include non-operational satellites, rocket bodies, and fragments generated from explosions, collisions, or faulty payload assembly.

Loading next visibility...
Identifier
32278, 2007-052D
Orbit
MEO
Country
Flag of CISCIS
Related business
Manufacturer
RKKE
Mission
Spacecraft
Bus & Motor
BLOK DM2, 11D58M
Mass
2,440 kg wet, 2,440 kg dry
Launch date (UTC)
2007-10-26 (19 years ago)
Launch vehicle
Unknown
Launch site
Tyuratam Missile And Space Complex (TTMTR)
Object type
Payload
Rocket body
Debris
Shape & HBR
Cyl, 3.5 m
Radar Cross Section
26.008 m², Large (>1 m²)

Expand to show TLE details & history
Last TLE update: 14 hours ago

TLE from 14 hours ago
0 SL-12 R/B(2)
1 32278U 07052D   26126.13312801 -.00000030  00000-0  00000+0 0  9995
2 32278  65.5917 316.7127 0017805 194.9015 346.7298  2.13393972144247
Epoch: 2026-05-06T03:11Z
TLE epoch observation values (Epoch: 2026-05-06T03:11:42.260Z)
Latitude
-1.48851°
Longitude
-134.53482°
Altitude
19,063.292 km
Speed
3.962 km/s
True Right ascension
09h 09m 33s
True Declination
-1° 29' 10"
Sunlit
Object was in daylight at epoch
Visualization orbit readout
Latitude
Unknown
Longitude
Unknown
Altitude
Unknown
Speed
Unknown
Apparent Right ascension
Unknown
Apparent Declination
Unknown
Sunlit
N/A
Visualization observer readout
Local Sidereal Time
01:08:39
Azimuth
Unknown
Elevation
Unknown
Doppler factor
Unknown
Orbital elements
Apogee altitude
19,151.584 km
Perigee altitude
19,060.834 km
Semi-major axis
25,484.346 km
Eccentricity
0.00178
Inclination
65.5917°
RAAN
316.7127°
Arg. of periapsis
194.9015°
True anomaly
346.68286°
Mean anomaly
346.7298°
Eccentric anomaly
346.70634°
Mean motion
0.5335 °/min
Orbital period
674.79 mins
BSTAR
0
Loading maneuver chart data...
Computing Atmospheric mass density...
Loading historical data...
Loading historical data...
Loading historical data...
Loading historical data...
Loading historical data...
Loading historical data...
Loading historical data...

Documentation

Showing up to 5 results
|